Weather in Letichiv

Ukraine / Khmelnitsky District     49°23′30″N   27°37′23″E
temp.,
°C
wind,
m/s
gust,
m/s
humid.,
%
clouds,
%
prec.,
mm/h
press.,
hPa
HPBL,
m
5 may, wed
wed500:00+6s41271100 0.0 1014223
03:00+5s41278100 0.0 1013241
06:00+4s37866 0.0 1011113
09:00+11ssw576412 0.0 1009347
12:00+16ssw564791 0.0 10091320
15:00+18ssw684272 0.0 10072278
18:00+17s6855100 0.0 10061053
21:00+12s51274100 0.0 1005331
6 may, thu
thu600:00+11s71492100 1.4 1005423
03:00+9ssw499895 1.6 1005247
06:00+7wnw61189100 0.3 1008503
09:00+9wnw71078100 0.4 1011896
12:00+11wnw7953100 0.0 10121356
15:00+13wnw794114 0.0 10121937
18:00+13w564630 0.0 10131863
21:00+9nw1170100 0.0 101410
7 may, fri
fri700:00+7sse227775 0.0 101413
03:00+6s337789 0.0 101436
06:00+6s338573 0.0 101352
09:00+11sse71169100 0.0 1011674
12:00+15ssw71062100 0.0 10091248
15:00+16sw7955100 0.2 10081610
18:00+15ssw4873100 0.1 1006887
21:00+11w4888100 0.3 1007191
8 may, sat
sat800:00+10wnw51190100 0.6 1008485
03:00+8wnw61281100 0.9 1011661
06:00+5wnw71383100 0.0 1013690
09:00+7wnw8106788 0.0 10151028
12:00+10wnw9114969 0.0 10161997
15:00+8wnw8115662 0.1 10171721
18:00+9nw8105968 0.1 10191723
21:00+4wnw37775 0.1 1021143
9 may, sun
sun900:00+3w311860 0.0 1022236
03:00+2w49920 0.0 1023175
06:00+2w36935 0.0 1025125
09:00+8wnw46665 0.0 1025616
12:00+12wnw35485 0.0 10251756
15:00+14wnw3441100 0.0 10242131
18:00+14wsw234323 0.0 10241919
21:00+9sse22605 0.0 102513